Location: Boda
(47.1872°N, 9.5454°E)
Time: 18:41:25
(UTC+00:00)

Cosmos 2084 - Pass Details

Date: 14 May 2021
Orbit: 542 x 639 km, 62.8° (Epoch: 16 June)

Event Time Altitude Azimuth Distance (km) Brightness Sun altitude
Rises 02:59:48 0° 319° (NW) 2,847 6.9 -7.5°
Reaches altitude 10° 03:02:03 10° 321° (NW) 1,957 6.1 -7.2°
Maximum altitude 03:06:29 78° 47° (NE) 636 3.8 -6.6°
Drops below altitude 10° 03:11:02 10° 135° (SE) 1,999 6.3 -6.0°
Sets 03:13:21 0° 137° (SE) 2,913 7.1 -5.7°
